Location: Buckeye Ditch
(40.9104°N, 122.9517°W)
Time: 09:57:40
(UTC+00:00)

Cosmos 1484 Rocket - Pass Details

Date: 13 April 2024
Orbit: 480 x 524 km, 97.6° (Epoch: 23 May)

Event Time Altitude Azimuth Distance (km) Brightness Sun altitude
Rises 12:56:18 0° 6° (N) 2,573 6.6 -7.8°
Reaches altitude 10° 12:58:25 10° 1° (N) 1,681 5.6 -7.4°
Maximum altitude 13:01:55 49° 286° (WNW) 630 2.8 -6.8°
Drops below altitude 10° 13:05:21 10° 211° (SSW) 1,653 4.8 -6.2°
Sets 13:07:26 0° 205° (SSW) 2,526 5.8 -5.8°
